| time (UTC) | temp C | wind direction | speed KPH | gust KPH | rain 1hr cm | rain 24hr cm | rain mn cm | humidity % | barometer mb |
| 20260502214403 | 17 | 220 | 9.7 | 16.1 | 0.00 | 0.00 | 0.00 | 54 | 946.2 |
| 20260502213904 | 17 | 237 | 6.4 | 16.1 | 0.00 | 0.00 | 0.00 | 53 | 946.1 |
| 20260502212903 | 17 | 230 | 1.6 | 4.8 | 0.00 | 0.00 | 0.00 | 52 | 946.1 |
| 20260502212403 | 17 | 126 | 1.6 | 4.8 | 0.00 | 0.00 | 0.00 | 51 | 946.1 |
| 20260502211903 | 17 | 126 | 1.6 | 4.8 | 0.00 | 0.00 | 0.00 | 50 | 946.1 |
| 20260502211404 | 18 | 230 | 1.6 | 3.2 | 0.00 | 0.00 | 0.00 | 49 | 946.1 |
| 20260502210904 | 18 | 230 | 1.6 | 3.2 | 0.00 | 0.00 | 0.00 | 49 | 946.2 |
| 20260502210404 | 18 | 230 | 1.6 | 3.2 | 0.00 | 0.00 | 0.00 | 49 | 946.2 |
| 20260502205904 | 18 | 230 | 3.2 | 3.2 | 0.00 | 0.00 | 0.00 | 48 | 946.2 |
| 20260502205404 | 18 | 230 | 3.2 | 4.8 | 0.00 | 0.00 | 0.00 | 48 | 946.3 |
| 20260502204904 | 18 | 231 | 3.2 | 4.8 | 0.00 | 0.00 | 0.00 | 47 | 946.3 |
| 20260502204403 | 18 | 227 | 3.2 | 4.8 | 0.00 | 0.00 | 0.00 | 47 | 946.3 |
| 20260502203904 | 18 | 224 | 1.6 | 4.8 | 0.00 | 0.00 | 0.00 | 46 | 946.3 |
| 20260502202903 | 18 | 206 | 1.6 | 3.2 | 0.00 | 0.00 | 0.00 | 46 | 946.3 |
| 20260502202404 | 18 | 206 | 1.6 | 3.2 | 0.00 | 0.00 | 0.00 | 44 | 946.4 |
| 20260502201904 | 18 | 205 | 1.6 | 4.8 | 0.00 | 0.00 | 0.00 | 44 | 946.4 |
| 20260502201403 | 18 | 206 | 1.6 | 4.8 | 0.00 | 0.00 | 0.00 | 45 | 946.4 |
| 20260502200403 | 18 | 121 | 0.0 | 3.2 | 0.00 | 0.00 | 0.00 | 45 | 946.4 |
| 20260502195903 | 18 | 119 | 1.6 | 3.2 | 0.00 | 0.00 | 0.00 | 44 | 946.4 |
| 20260502195404 | 18 | 119 | 3.2 | 4.8 | 0.00 | 0.00 | 0.00 | 44 | 946.5 |
| 20260502194903 | 19 | 119 | 3.2 | 4.8 | 0.00 | 0.00 | 0.00 | 44 | 946.5 |
| 20260502194404 | 19 | 117 | 3.2 | 4.8 | 0.00 | 0.00 | 0.00 | 45 | 946.5 |
| 20260502193404 | 19 | 111 | 1.6 | 3.2 | 0.00 | 0.00 | 0.00 | 44 | 946.4 |
| 20260502192904 | 20 | 131 | 3.2 | 3.2 | 0.00 | 0.00 | 0.00 | 43 | 946.4 |
| 20260502192404 | 20 | 129 | 3.2 | 3.2 | 0.00 | 0.00 | 0.00 | 43 | 946.5 |
| 20260502191903 | 20 | 129 | 3.2 | 4.8 | 0.00 | 0.00 | 0.00 | 43 | 946.5 |
| 20260502191403 | 20 | 191 | 1.6 | 4.8 | 0.00 | 0.00 | 0.00 | 42 | 946.5 |
| 20260502190903 | 21 | 192 | 1.6 | 4.8 | 0.00 | 0.00 | 0.00 | 41 | 946.4 |
| 20260502190404 | 21 | 91 | 0.0 | 3.2 | 0.00 | 0.00 | 0.00 | 42 | 946.4 |
| 20260502185904 | 21 | 91 | 0.0 | 3.2 | 0.00 | 0.00 | 0.00 | 42 | 946.4 |
| 20260502185404 | 21 | 91 | 0.0 | 3.2 | 0.00 | 0.00 | 0.00 | 41 | 946.3 |
| 20260502184903 | 21 | 91 | 0.0 | 3.2 | 0.00 | 0.00 | 0.00 | 41 | 946.3 |
| 20260502182904 | 22 | 4 | 1.6 | 3.2 | 0.00 | 0.00 | 0.00 | 39 | 946.2 |
| 20260502182403 | 23 | 3 | 0.0 | 3.2 | 0.00 | 0.00 | 0.00 | 38 | 946.1 |
| 20260502180403 | 25 | 14 | 0.0 | 3.2 | 0.00 | 0.00 | 0.00 | 34 | 946.0 |
| 20260502170405 | 30 | 39 | 0.0 | 3.2 | 0.00 | 0.00 | 0.00 | 27 | 946.1 |
| 20260502163904 | 30 | 341 | 3.2 | 4.8 | 0.00 | 0.00 | 0.00 | 28 | 946.3 |
| 20260502162903 | 30 | 5 | 1.6 | 3.2 | 0.00 | 0.00 | 0.00 | 29 | 946.3 |
| 20260502162403 | 30 | 6 | 3.2 | 8.0 | 0.00 | 0.00 | 0.00 | 28 | 946.6 |
| 20260502161904 | 30 | 280 | 3.2 | 8.0 | 0.00 | 0.00 | 0.00 | 28 | 946.6 |
| 20260502161403 | 29 | 44 | 3.2 | 8.0 | 0.00 | 0.00 | 0.00 | 28 | 946.6 |
| 20260502160903 | 29 | 337 | 3.2 | 8.0 | 0.00 | 0.00 | 0.00 | 29 | 946.7 |
| 20260502160404 | 29 | 326 | 3.2 | 4.8 | 0.00 | 0.00 | 0.00 | 29 | 946.7 |
| 20260502151904 | 29 | 99 | 3.2 | 4.8 | 0.00 | 0.00 | 0.00 | 31 | 947.0 |
| 20260502151404 | 29 | 100 | 3.2 | 4.8 | 0.00 | 0.00 | 0.00 | 31 | 947.0 |
| 20260502150904 | 29 | 325 | 3.2 | 4.8 | 0.00 | 0.00 | 0.00 | 31 | 947.1 |
| 20260502150403 | 29 | 344 | 3.2 | 4.8 | 0.00 | 0.00 | 0.00 | 30 | 947.1 |
| 20260502123404 | 26 | 112 | 4.8 | 8.0 | 0.00 | 0.00 | 0.00 | 32 | 949.2 |
| 20260502122404 | 26 | 112 | 3.2 | 8.0 | 0.00 | 0.00 | 0.00 | 35 | 949.5 |
| 20260502121904 | 26 | 122 | 3.2 | 8.0 | 0.00 | 0.00 | 0.00 | 34 | 949.5 |
| 20260502120403 | 26 | 99 | 3.2 | 4.8 | 0.00 | 0.00 | 0.00 | 37 | 949.7 |
| 20260502115904 | 26 | 84 | 3.2 | 4.8 | 0.00 | 0.00 | 0.00 | 40 | 949.7 |
| 20260502115403 | 26 | 67 | 3.2 | 4.8 | 0.00 | 0.00 | 0.00 | 40 | 949.9 |
| 20260502114903 | 26 | 79 | 3.2 | 8.0 | 0.00 | 0.00 | 0.00 | 40 | 949.9 |
| 20260502114403 | 26 | 99 | 3.2 | 8.0 | 0.00 | 0.00 | 0.00 | 40 | 949.9 |
| 20260502113903 | 25 | 74 | 3.2 | 8.0 | 0.00 | 0.00 | 0.00 | 42 | 950.2 |
| 20260502113403 | 25 | 15 | 3.2 | 4.8 | 0.00 | 0.00 | 0.00 | 42 | 950.2 |
| 20260502111403 | 24 | 72 | 3.2 | 8.0 | 0.00 | 0.00 | 0.00 | 45 | 950.4 |
| 20260502110904 | 24 | 79 | 3.2 | 8.0 | 0.00 | 0.00 | 0.00 | 47 | 950.5 |
| 20260502110403 | 23 | 90 | 3.2 | 8.0 | 0.00 | 0.00 | 0.00 | 49 | 950.5 |
| 20260502105904 | 23 | 87 | 3.2 | 8.0 | 0.00 | 0.00 | 0.00 | 49 | 950.5 |
| 20260502105404 | 22 | 85 | 3.2 | 8.0 | 0.00 | 0.00 | 0.00 | 51 | 950.7 |
| 20260502104403 | 22 | 101 | 3.2 | 8.0 | 0.00 | 0.00 | 0.00 | 52 | 950.7 |
| 20260502103903 | 21 | 84 | 3.2 | 8.0 | 0.00 | 0.00 | 0.00 | 53 | 950.8 |
| 20260502103403 | 21 | 83 | 3.2 | 8.0 | 0.00 | 0.00 | 0.00 | 55 | 950.8 |
| 20260502102903 | 21 | 91 | 3.2 | 8.0 | 0.00 | 0.00 | 0.00 | 55 | 950.8 |
| 20260502102404 | 20 | 99 | 1.6 | 4.8 | 0.00 | 0.00 | 0.00 | 56 | 951.0 |
| 20260502101404 | 20 | 272 | 3.2 | 8.0 | 0.00 | 0.00 | 0.00 | 55 | 951.0 |
| 20260502100904 | 20 | 5 | 3.2 | 4.8 | 0.00 | 0.00 | 0.00 | 56 | 951.2 |
| 20260502100403 | 20 | 339 | 8.0 | 11.3 | 0.00 | 0.00 | 0.00 | 57 | 951.2 |
| 20260502091404 | 18 | 87 | 3.2 | 8.0 | 0.00 | 0.00 | 0.00 | 61 | 951.5 |
| 20260502090904 | 18 | 79 | 3.2 | 8.0 | 0.00 | 0.00 | 0.00 | 63 | 951.7 |
| 20260502090403 | 18 | 112 | 4.8 | 8.0 | 0.00 | 0.00 | 0.00 | 64 | 951.7 |
| 20260502071404 | 14 | 105 | 3.2 | 8.0 | 0.00 | 0.00 | 0.00 | 72 | 951.8 |
| 20260502070903 | 14 | 104 | 3.2 | 8.0 | 0.00 | 0.00 | 0.00 | 73 | 951.8 |
| 20260502070404 | 14 | 115 | 3.2 | 3.2 | 0.00 | 0.00 | 0.00 | 73 | 951.8 |
| 20260502065904 | 14 | 115 | 3.2 | 3.2 | 0.00 | 0.00 | 0.00 | 73 | 951.8 |
| 20260502064404 | 13 | 110 | 3.2 | 8.0 | 0.00 | 0.00 | 0.00 | 72 | 951.8 |
| 20260502063904 | 13 | 84 | 3.2 | 8.0 | 0.00 | 0.00 | 0.00 | 71 | 951.8 |
| 20260502063404 | 13 | 85 | 3.2 | 8.0 | 0.00 | 0.00 | 0.00 | 71 | 951.8 |
| 20260502062903 | 13 | 105 | 3.2 | 3.2 | 0.00 | 0.00 | 0.00 | 72 | 951.8 |
| 20260502062403 | 13 | 105 | 3.2 | 3.2 | 0.00 | 0.00 | 0.00 | 73 | 951.7 |
| 20260502061904 | 13 | 105 | 3.2 | 4.8 | 0.00 | 0.00 | 0.00 | 73 | 951.7 |
| 20260502061404 | 13 | 104 | 3.2 | 4.8 | 0.00 | 0.00 | 0.00 | 72 | 951.7 |
| 20260502060903 | 13 | 129 | 3.2 | 4.8 | 0.00 | 0.00 | 0.00 | 70 | 951.7 |
| 20260502060404 | 13 | 129 | 3.2 | 4.8 | 0.00 | 0.00 | 0.00 | 70 | 951.7 |
| 20260502055904 | 13 | 125 | 3.2 | 4.8 | 0.00 | 0.00 | 0.00 | 71 | 951.7 |
| 20260502055404 | 13 | 126 | 1.6 | 3.2 | 0.00 | 0.00 | 0.00 | 72 | 951.7 |
| 20260502054904 | 13 | 126 | 1.6 | 3.2 | 0.00 | 0.00 | 0.00 | 71 | 951.7 |
| 20260502054404 | 12 | 126 | 3.2 | 3.2 | 0.00 | 0.00 | 0.00 | 71 | 951.7 |
| 20260502053904 | 12 | 126 | 3.2 | 8.0 | 0.00 | 0.00 | 0.00 | 71 | 951.7 |
| 20260502052903 | 12 | 137 | 0.0 | 3.2 | 0.00 | 0.00 | 0.00 | 70 | 951.7 |
| 20260502052403 | 12 | 137 | 0.0 | 3.2 | 0.00 | 0.00 | 0.00 | 69 | 951.6 |
| 20260502051904 | 12 | 137 | 0.0 | 3.2 | 0.00 | 0.00 | 0.00 | 71 | 951.6 |
| 20260502051403 | 12 | 137 | 0.0 | 1.6 | 0.00 | 0.00 | 0.00 | 71 | 951.6 |
| 20260502050904 | 12 | 137 | 0.0 | 0.0 | 0.00 | 0.00 | 0.00 | 71 | 951.4 |
| 20260502050404 | 12 | 141 | 0.0 | 1.6 | 0.00 | 0.00 | 0.00 | 71 | 951.4 |
| 20260502045904 | 11 | 141 | 0.0 | 3.2 | 0.00 | 0.00 | 0.00 | 71 | 951.4 |
| 20260502045404 | 11 | 128 | 3.2 | 4.8 | 0.00 | 0.00 | 0.00 | 71 | 951.4 |
| 20260502044904 | 11 | 128 | 3.2 | 8.0 | 0.00 | 0.00 | 0.00 | 71 | 951.4 |
| 20260502044403 | 11 | 130 | 1.6 | 8.0 | 0.00 | 0.00 | 0.00 | 70 | 951.4 |
| 20260502043903 | 11 | 130 | 1.6 | 8.0 | 0.00 | 0.00 | 0.00 | 70 | 951.5 |
| 20260502043403 | 11 | 229 | 0.0 | 3.2 | 0.00 | 0.00 | 0.00 | 70 | 951.5 |
| 20260502042403 | 11 | 229 | 3.2 | 3.2 | 0.00 | 0.00 | 0.00 | 69 | 951.5 |
| 20260502041904 | 11 | 229 | 3.2 | 3.2 | 0.00 | 0.00 | 0.00 | 70 | 951.5 |
| 20260502041404 | 11 | 229 | 0.0 | 3.2 | 0.00 | 0.00 | 0.00 | 70 | 951.5 |
| 20260502040903 | 11 | 229 | 0.0 | 0.0 | 0.00 | 0.00 | 0.00 | 69 | 951.4 |
| 20260502034403 | 11 | 231 | 3.2 | 8.0 | 0.00 | 0.00 | 0.00 | 68 | 951.4 |
| 20260502033903 | 11 | 230 | 3.2 | 8.0 | 0.00 | 0.00 | 0.00 | 68 | 951.4 |
| 20260502033404 | 11 | 229 | 3.2 | 8.0 | 0.00 | 0.00 | 0.00 | 68 | 951.4 |
| 20260502032904 | 11 | 230 | 3.2 | 8.0 | 0.00 | 0.00 | 0.00 | 67 | 951.4 |
| 20260502032403 | 11 | 233 | 0.0 | 8.0 | 0.00 | 0.00 | 0.00 | 67 | 951.4 |
| 20260502031903 | 12 | 230 | 0.0 | 4.8 | 0.00 | 0.00 | 0.00 | 66 | 951.4 |
| 20260502031403 | 12 | 136 | 0.0 | 0.0 | 0.00 | 0.00 | 0.00 | 65 | 951.4 |
| 20260502030903 | 12 | 136 | 0.0 | 3.2 | 0.00 | 0.00 | 0.00 | 66 | 951.4 |
| 20260502030404 | 12 | 136 | 3.2 | 3.2 | 0.00 | 0.00 | 0.00 | 66 | 951.4 |
| 20260502025903 | 12 | 136 | 3.2 | 3.2 | 0.00 | 0.00 | 0.00 | 65 | 951.4 |
| 20260502024904 | 12 | 186 | 1.6 | 3.2 | 0.00 | 0.00 | 0.00 | 66 | 951.4 |
| 20260502024403 | 12 | 184 | 3.2 | 8.0 | 0.00 | 0.00 | 0.00 | 65 | 951.4 |
| 20260502023903 | 11 | 180 | 3.2 | 8.0 | 0.00 | 0.00 | 0.00 | 66 | 951.4 |
| 20260502022904 | 12 | 183 | 1.6 | 4.8 | 0.00 | 0.00 | 0.00 | 64 | 951.4 |
| 20260502022404 | 12 | 228 | 3.2 | 3.2 | 0.00 | 0.00 | 0.00 | 63 | 951.4 |
| 20260502021903 | 12 | 228 | 3.2 | 3.2 | 0.00 | 0.00 | 0.00 | 62 | 951.4 |
| 20260502021403 | 12 | 228 | 3.2 | 3.2 | 0.00 | 0.00 | 0.00 | 62 | 951.4 |
| 20260502020903 | 12 | 228 | 3.2 | 3.2 | 0.00 | 0.00 | 0.00 | 62 | 951.5 |
| 20260502015903 | 12 | 228 | 3.2 | 8.0 | 0.00 | 0.00 | 0.00 | 59 | 951.5 |
| 20260502015404 | 12 | 229 | 4.8 | 8.0 | 0.00 | 0.00 | 0.00 | 59 | 951.5 |
| 20260502014904 | 12 | 229 | 4.8 | 8.0 | 0.00 | 0.00 | 0.00 | 59 | 951.5 |
| 20260502014404 | 12 | 225 | 4.8 | 8.0 | 0.00 | 0.00 | 0.00 | 56 | 951.5 |
| 20260502013904 | 12 | 236 | 4.8 | 8.0 | 0.00 | 0.00 | 0.00 | 57 | 951.5 |
| 20260502013404 | 12 | 249 | 4.8 | 8.0 | 0.00 | 0.00 | 0.00 | 58 | 951.5 |
| 20260502012903 | 12 | 255 | 4.8 | 8.0 | 0.00 | 0.00 | 0.00 | 58 | 951.5 |
| 20260502012404 | 12 | 258 | 4.8 | 9.7 | 0.00 | 0.00 | 0.00 | 58 | 951.5 |
| 20260502011403 | 12 | 254 | 3.2 | 9.7 | 0.00 | 0.00 | 0.00 | 60 | 951.5 |
| 20260502010404 | 12 | 242 | 3.2 | 8.0 | 0.00 | 0.00 | 0.00 | 62 | 951.5 |
| 20260502005904 | 12 | 243 | 3.2 | 8.0 | 0.00 | 0.00 | 0.00 | 62 | 951.5 |
| 20260502005404 | 13 | 243 | 3.2 | 8.0 | 0.00 | 0.00 | 0.00 | 62 | 951.6 |
| 20260502004904 | 13 | 237 | 3.2 | 4.8 | 0.00 | 0.00 | 0.00 | 62 | 951.6 |
| 20260502004403 | 13 | 234 | 4.8 | 8.0 | 0.00 | 0.00 | 0.00 | 61 | 951.6 |
| 20260502003404 | 13 | 236 | 3.2 | 8.0 | 0.00 | 0.00 | 0.00 | 61 | 951.6 |
| 20260502002903 | 13 | 238 | 3.2 | 8.0 | 0.00 | 0.00 | 0.00 | 60 | 951.6 |
| 20260502002403 | 13 | 230 | 0.0 | 3.2 | 0.00 | 0.00 | 0.00 | 59 | 951.6 |
| 20260502001404 | 13 | 228 | 0.0 | 3.2 | 0.00 | 0.00 | 0.00 | 59 | 951.6 |
| 20260502000904 | 13 | 228 | 0.0 | 3.2 | 0.00 | 0.00 | 0.00 | 58 | 951.7 |
| 20260502000404 | 13 | 228 | 3.2 | 3.2 | 0.00 | 0.00 | 0.00 | 58 | 951.7 |
| 20260501235903 | 13 | 228 | 3.2 | 4.8 | 0.00 | 0.00 | 0.00 | 58 | 951.7 |
| 20260501233903 | 14 | 242 | 0.0 | 4.8 | 0.00 | 0.00 | 0.00 | 57 | 951.7 |
| 20260501233404 | 14 | 113 | 0.0 | 3.2 | 0.00 | 0.00 | 0.00 | 57 | 951.7 |
| 20260501232903 | 14 | 113 | 0.0 | 3.2 | 0.00 | 0.00 | 0.00 | 56 | 951.7 |
| 20260501232404 | 14 | 114 | 3.2 | 4.8 | 0.00 | 0.00 | 0.00 | 56 | 951.7 |
| 20260501231904 | 14 | 113 | 3.2 | 9.7 | 0.00 | 0.00 | 0.00 | 56 | 951.7 |
| 20260501231403 | 14 | 112 | 3.2 | 9.7 | 0.00 | 0.00 | 0.00 | 56 | 951.7 |
| 20260501230904 | 14 | 109 | 3.2 | 3.2 | 0.00 | 0.00 | 0.00 | 55 | 951.7 |
| 20260501230405 | 14 | 223 | 3.2 | 8.0 | 0.00 | 0.00 | 0.00 | 53 | 951.7 |
| 20260501225903 | 14 | 223 | 3.2 | 8.0 | 0.00 | 0.00 | 0.00 | 52 | 951.7 |
| 20260501225404 | 14 | 223 | 0.0 | 8.0 | 0.00 | 0.00 | 0.00 | 52 | 951.6 |
| 20260501224904 | 14 | 221 | 0.0 | 3.2 | 0.00 | 0.00 | 0.00 | 52 | 951.6 |
| 20260501223404 | 14 | 220 | 1.6 | 8.0 | 0.00 | 0.00 | 0.00 | 45 | 951.7 |
| 20260501222904 | 15 | 196 | 1.6 | 4.8 | 0.00 | 0.00 | 0.00 | 44 | 951.7 |
| 20260501222403 | 15 | 228 | 3.2 | 3.2 | 0.00 | 0.00 | 0.00 | 44 | 951.7 |
| 20260501221404 | 15 | 228 | 3.2 | 4.8 | 0.00 | 0.00 | 0.00 | 43 | 951.7 |
| 20260501220904 | 15 | 229 | 3.2 | 4.8 | 0.00 | 0.00 | 0.00 | 42 | 951.7 |
| 20260501220403 | 15 | 229 | 3.2 | 4.8 | 0.00 | 0.00 | 0.00 | 43 | 951.7 |
| 20260501215904 | 15 | 230 | 3.2 | 8.0 | 0.00 | 0.00 | 0.00 | 42 | 951.7 |
| 20260501215404 | 15 | 229 | 3.2 | 8.0 | 0.00 | 0.00 | 0.00 | 41 | 951.7 |
| 20260501214903 | 15 | 237 | 3.2 | 8.0 | 0.00 | 0.00 | 0.00 | 41 | 951.7 |